UFO 10 (USA 146)

Last updated on Thu Oct 30 2025 00:02:47 GMT+0000 (Coordinated Universal Time)

1 25967U 99063A 25302.61244928 -.00000176 00000+0 00000+0 0 9997 2 25967 9.8311 28.3789 0006155 209.2245 358.1229 1.00270634 95020
UTC large
Height (km)
Speed (km/s)
/
Latitude / Longitude
Inclination (degrees)
Orbital Period (minutes)
Azimuth
Elevation
Range (km)
Doppler Factor

Next 0 passes for location: London (51.5072 / 0.1276)

Sorry there are no passes over London.